Regional Weather Roundup
Issued by NWS

Home | Current Version | Previous Version | Graphics & Text | Print | Product List | Glossary On
Versions: 1 2 3 4 5 6 7 8 9 10 11 12 13 14 15 16 17 18 19 20 21 22 23 24 25 26 27 28 29 30 31 32 33 34 35 36 37 38 39 40 41 42 43 44 45 46 47 48 49 50
000
ASUS43 KIND 241759
RWRIN

WEATHER ROUNDUP FOR INDIANA
NATIONAL WEATHER SERVICE INDIANAPOLIS IN
200 PM EDT FRI APR 24 2015

NOTE: "FAIR" INDICATES FEW OR NO CLOUDS BELOW 12,000 FEET WITH NO
SIGNIFICANT WEATHER AND/OR OBSTRUCTIONS TO VISIBILITY.

* - STATION DOES NOT REPORT WEATHER SUCH AS PRECIPITATION OR FOG.

+ - STATION NOT QUALITY CONTROLLED BY THE NATIONAL WEATHER SERVICE.
    USE DATA WITH CAUTION...ESPECIALLY DEWPOINT AND RELATIVE
    HUMIDITY OBSERVATIONS.

INZ001>003-010>013-019-020-241900-
NORTHWEST INDIANA

CITY           SKY/WX    TMP DP  RH WIND       PRES   REMARKS
GARY /AIRPORT/ PTSUNNY   61   7  11 CALM      30.04F
KNOX *+        MOSUNNY   57 N/A N/A CALM      30.02F
RENSSELAER +   SUNNY     61  19  20 S9        30.03F

$$

LMZ046-743>745-241900-
SOUTHERN LAKE MICHIGAN

STATION/POSITION TIME  TEMP    WIND        PRES    WAVE
                       AIR SEA DIR/SP/G            HT
                 (UTC) (F)     (DEG/KT/KT) (MB)    (FT)
BURNS HARBOR     1700   47      30/ 10/ 11 1017.9F
MICHIGAN CITY    1700   45      20/  7/  8   N/A
5NW MICH CITY    1700   44 44  360/  6/  8   N/A     0

$$

INZ004-005-014>016-021>024-241900-
NORTH CENTRAL INDIANA

CITY           SKY/WX    TMP DP  RH WIND       PRES   REMARKS
ELKHART        SUNNY     57  12  17 W3        30.05F
GOSHEN         SUNNY     56  25  30 NW8       30.04F
6HR MIN TEMP:  31; 6HR MAX TEMP:  57;

SOUTH BEND     PTSUNNY   58  16  19 VRB3      30.04F
6HR MIN TEMP:  35; 6HR MAX TEMP:  58;

WARSAW +       SUNNY     57  21  24 S6        30.04F

$$

INZ006>009-017-018-025>027-241900-
NORTHEAST INDIANA

CITY           SKY/WX    TMP DP  RH WIND       PRES   REMARKS
ANGOLA *+      SUNNY     55  23  28 VRB7      30.05F
FORT WAYNE     MOSUNNY   57  21  24 SW8       30.06F
6HR MIN TEMP:  33; 6HR MAX TEMP:  58;


$$

INZ028-029-035-036-043>045-051>053-241900-
WEST CENTRAL INDIANA

CITY           SKY/WX    TMP DP  RH WIND       PRES   REMARKS
CRAWFORDSVL +  CLOUDY    56   9  15 SW6       30.05F
6HR MIN TEMP:  31; 6HR MAX TEMP:  56;

GREENCASTLE +  CLOUDY    59  18  20 SE7       30.05F
LAFAYETTE      PTSUNNY   59  23  25 SE8       30.04F
6HR MIN TEMP:  30; 6HR MAX TEMP:  59;

TERRE HAUTE    CLOUDY    60  27  28 S8        30.05F
6HR MIN TEMP:  33; 6HR MAX TEMP:  60;


$$

INZ030>032-037>040-046>048-054>057-064-065-241900-
CENTRAL INDIANA

CITY           SKY/WX    TMP DP  RH WIND       PRES   REMARKS
ANDERSON       SUNNY     57  12  17 S8        30.08F
COLUMBUS       SUNNY     57  12  17 S6        30.09F
FRANKFORT +    MOSUNNY   60  24  26 CALM      30.06F
6HR MIN TEMP:  31; 6HR MAX TEMP:  60;

GREENWOOD *+   PTSUNNY   59  12  15 CALM      30.06F
INDIANAPOLIS   PTSUNNY   59  23  25 VRB6      30.05F
6HR MIN TEMP:  37; 6HR MAX TEMP:  59;

-EAGLE CREEK   PTSUNNY   58  20  22 VRB7      30.05F
6HR MIN TEMP:  34; 6HR MAX TEMP:  59;

KOKOMO *+      SUNNY     59  21  23 SW7       30.05F
6HR MIN TEMP:  34; 6HR MAX TEMP:  59;

MT COMFORT *+  PTSUNNY   59  -9   6 SE7       30.08F
SHELBYVILLE    PTSUNNY   61  24  24 S9        30.07F
6HR MIN TEMP:  38; 6HR MAX TEMP:  61;


$$

INZ033-034-041-042-049-050-058-059-241900-
EAST CENTRAL INDIANA

CITY           SKY/WX    TMP DP  RH WIND       PRES   REMARKS
MUNCIE         MOSUNNY   57  19  22 W8        30.06F
6HR MIN TEMP:  37; 6HR MAX TEMP:  57;


$$

INZ060-061-067>069-081>083-085>088-241900-
SOUTHWEST INDIANA

CITY           SKY/WX    TMP DP  RH WIND       PRES   REMARKS
EVANSVILLE     PTSUNNY   60  25  26 SE8       30.06F
6HR MIN TEMP:  39; 6HR MAX TEMP:  61;

HUNTINGBURG *+ PTSUNNY   61  28  29 CALM      30.07F
6HR MIN TEMP:  34; 6HR MAX TEMP:  61;


$$

INZ062-063-066-070>080-084-089>092-241900-
SOUTH CENTRAL AND SOUTHEAST INDIANA

CITY           SKY/WX    TMP DP  RH WIND       PRES   REMARKS
BLOOMINGTON    PTSUNNY   61  21  21 SE9       30.05F
6HR MIN TEMP:  33; 6HR MAX TEMP:  61;

MADISON *+     MOSUNNY   59  14  17 CALM      30.10F
SEYMOUR +      PTSUNNY   61  28  29 E3        30.07F

$$




USA.gov is the U.S. government's official web portal to all federal, state and local government web resources and services.